QPF
0.03 0.03 0.02 0.02 0.02 0.02 0.03 0.02 0.01 0.01 0.00 0.01 0.01 0.01 0.00 0.00 0.00 0.00 0.00 0.00 0.00 0.00 0.00 0.00 0.01 0.02 0.02 0.02 0.02 0.02 0.02 0.03 0.06 0.08 0.07 0.06 0.05 0.05 0.03 0.03 0.03 0.03 0.03 0.02
0.03 0.03 0.01 0.01 0.01 0.01 0.02 0.03 0.02 0.01 0.00 0.01 0.01 0.00 0.00 0.00 0.00 0.00 0.00 0.00 0.00 0.00 0.00 0.00 0.01 0.01 0.02 0.02 0.02 0.03 0.03 0.03 0.05 0.07 0.09 0.07 0.06 0.05 0.04 0.03 0.03 0.03 0.03 0.02
0.03 0.02 0.00 0.01 0.01 0.02 0.02 0.02 0.02 0.02 0.01 0.01 0.02 0.01 0.00 0.00 0.00 0.00 0.00 0.00 0.00 0.00 0.00 0.00 0.00 0.01 0.02 0.02 0.02 0.03 0.05 0.04 0.05 0.07 0.09 0.09 0.08 0.06 0.04 0.03 0.02 0.03 0.03 0.02
0.02 0.01 0.01 0.01 0.02 0.02 0.02 0.01 0.01 0.02 0.03 0.03 0.02 0.02 0.00 0.00 0.00 0.00 0.00 0.00 0.00 0.00 0.00 0.00 0.00 0.01 0.01 0.02 0.02 0.03 0.05 0.07 0.06 0.07 0.07 0.06 0.07 0.07 0.05 0.03 0.02 0.02 0.02 0.03
0.03 0.01 0.01 0.02 0.01 0.02 0.02 0.01 0.01 0.02 0.03 0.04 0.03 0.03 0.01 0.00 0.00 0.00 0.00 0.00 0.00 0.00 0.00 0.00 0.00 0.01 0.01 0.01 0.02 0.02 0.03 0.06 0.09 0.08 0.06 0.04 0.05 0.05 0.05 0.03 0.03 0.02 0.02 0.02
0.02 0.01 0.01 0.01 0.01 0.02 0.02 0.02 0.03 0.02 0.04 0.06 0.02 0.02 0.01 0.00 0.00 0.00 0.00 0.00 0.00 0.00 0.00 0.00 0.00 0.00 0.00 0.01 0.01 0.02 0.02 0.02 0.07 0.11 0.06 0.04 0.04 0.03 0.04 0.04 0.04 0.04 0.02 0.02
0.01 0.01 0.02 0.02 0.02 0.02 0.03 0.06 0.09 0.08 0.07 0.03 0.01 0.01 0.01 0.00 0.00 0.00 0.00 0.00 0.00 0.00 0.00 0.00 0.00 0.01 0.00 0.01 0.01 0.02 0.02 0.02 0.03 0.06 0.09 0.06 0.05 0.03 0.03 0.04 0.04 0.04 0.03 0.02
0.03 0.02 0.02 0.02 0.02 0.04 0.05 0.06 0.08 0.06 0.03 0.02 0.01 0.02 0.02 0.01 0.00 0.00 0.00 0.00 0.00 0.00 0.00 0.00 0.00 0.00 0.00 0.01 0.01 0.01 0.01 0.01 0.02 0.03 0.06 0.08 0.07 0.05 0.05 0.05 0.05 0.05 0.04 0.03
0.06 0.04 0.02 0.01 0.02 0.02 0.04 0.04 0.05 0.06 0.03 0.03 0.03 0.03 0.02 0.01 0.00 0.00 0.00 0.01 0.00 0.00 0.00 0.00 0.00 0.00 0.00 0.01 0.01 0.01 0.01 0.01 0.01 0.01 0.02 0.05 0.07 0.07 0.07 0.06 0.06 0.06 0.06 0.05
0.08 0.06 0.03 0.02 0.02 0.03 0.03 0.04 0.05 0.08 0.06 0.05 0.05 0.03 0.03 0.01 0.01 0.00 0.00 0.00 0.00 0.00 0.00 0.01 0.01 0.00 0.01 0.01 0.01 0.01 0.01 0.01 0.01 0.01 0.02 0.03 0.04 0.06 0.06 0.06 0.06 0.07 0.07 0.07
0.05 0.06 0.04 0.03 0.04 0.05 0.05 0.05 0.06 0.07 0.06 0.05 0.06 0.05 0.03 0.01 0.01 0.01 0.01 0.00 0.00 0.00 0.01 0.01 0.01 0.01 0.02 0.02 0.02 0.01 0.01 0.01 0.01 0.02 0.02 0.02 0.03 0.04 0.05 0.06 0.06 0.06 0.06 0.07
0.04 0.05 0.04 0.03 0.03 0.03 0.05 0.07 0.07 0.06 0.05 0.04 0.05 0.05 0.02 0.01 0.01 0.01 0.01 0.00 0.00 0.00 0.01 0.02 0.01 0.00 0.01 0.01 0.02 0.02 0.01 0.01 0.02 0.02 0.02 0.02 0.02 0.03 0.03 0.03 0.04 0.04 0.04 0.04
0.07 0.06 0.05 0.05 0.05 0.04 0.04 0.05 0.06 0.05 0.04 0.03 0.04 0.05 0.02 0.01 0.01 0.01 0.01 0.00 0.00 0.01 0.01 0.01 0.01 0.01 0.01 0.01 0.01 0.01 0.02 0.01 0.01 0.02 0.02 0.02 0.02 0.02 0.02 0.03 0.03 0.03 0.03 0.03
0.05 0.04 0.04 0.06 0.06 0.04 0.03 0.03 0.04 0.04 0.04 0.04 0.04 0.03 0.02 0.02 0.01 0.01 0.01 0.00 0.00 0.01 0.01 0.01 0.01 0.01 0.01 0.01 0.01 0.01 0.01 0.02 0.02 0.02 0.02 0.02 0.02 0.02 0.02 0.02 0.03 0.03 0.03 0.02
0.03 0.04 0.03 0.03 0.03 0.03 0.02 0.03 0.04 0.04 0.04 0.04 0.04 0.03 0.02 0.02 0.02 0.01 0.01 0.01 0.01 0.01 0.01 0.02 0.02 0.01 0.01 0.01 0.01 0.01 0.01 0.01 0.02 0.02 0.02 0.02 0.02 0.02 0.02 0.02 0.02 0.02 0.02 0.02
0.02 0.03 0.02 0.02 0.03 0.03 0.02 0.02 0.03 0.04 0.04 0.03 0.02 0.03 0.03 0.02 0.02 0.01 0.01 0.01 0.01 0.01 0.02 0.02 0.02 0.02 0.02 0.02 0.02 0.01 0.01 0.01 0.01 0.01 0.02 0.02 0.02 0.02 0.02 0.02 0.02 0.02 0.02 0.02
0.03 0.03 0.03 0.02 0.02 0.03 0.04 0.04 0.04 0.04 0.04 0.03 0.04 0.04 0.03 0.02 0.02 0.02 0.02 0.02 0.02 0.03 0.04 0.03 0.03 0.03 0.03 0.03 0.02 0.02 0.01 0.01 0.01 0.01 0.01 0.02 0.02 0.02 0.02 0.02 0.02 0.02 0.02 0.02
0.03 0.03 0.04 0.02 0.02 0.05 0.06 0.04 0.03 0.03 0.04 0.04 0.04 0.03 0.03 0.03 0.03 0.02 0.02 0.02 0.03 0.03 0.03 0.04 0.03 0.03 0.03 0.03 0.03 0.02 0.02 0.01 0.01 0.01 0.01 0.01 0.01 0.01 0.02 0.03 0.03 0.03 0.02 0.02
0.01 0.03 0.04 0.03 0.03 0.03 0.03 0.03 0.05 0.04 0.05 0.04 0.04 0.03 0.03 0.03 0.02 0.02 0.02 0.02 0.02 0.02 0.03 0.03 0.03 0.03 0.03 0.03 0.03 0.02 0.03 0.02 0.02 0.01 0.01 0.01 0.01 0.01 0.02 0.03 0.03 0.03 0.02 0.02
0.02 0.03 0.05 0.04 0.04 0.04 0.04 0.03 0.03 0.04 0.05 0.03 0.03 0.03 0.03 0.02 0.02 0.03 0.02 0.02 0.02 0.02 0.02 0.03 0.03 0.02 0.02 0.03 0.02 0.02 0.03 0.02 0.01 0.01 0.01 0.01 0.01 0.02 0.02 0.03 0.03 0.03 0.03 0.02
0.02 0.04 0.05 0.04 0.04 0.04 0.03 0.02 0.02 0.05 0.06 0.03 0.03 0.03 0.03 0.02 0.03 0.03 0.03 0.02 0.02 0.02 0.02 0.03 0.03 0.02 0.02 0.02 0.03 0.02 0.02 0.02 0.02 0.01 0.01 0.01 0.01 0.02 0.02 0.03 0.03 0.03 0.03 0.02
0.04 0.05 0.04 0.04 0.05 0.05 0.03 0.03 0.06 0.07 0.04 0.03 0.03 0.03 0.03 0.03 0.03 0.03 0.03 0.03 0.02 0.03 0.03 0.02 0.02 0.02 0.02 0.02 0.03 0.02 0.02 0.02 0.02 0.01 0.01 0.01 0.01 0.01 0.01 0.02 0.02 0.02 0.02 0.02
0.04 0.05 0.05 0.05 0.06 0.06 0.05 0.06 0.07 0.06 0.05 0.04 0.04 0.03 0.03 0.03 0.03 0.04 0.04 0.04 0.04 0.04 0.03 0.03 0.02 0.02 0.03 0.03 0.03 0.03 0.02 0.02 0.01 0.01 0.01 0.01 0.01 0.01 0.01 0.02 0.02 0.02 0.02 0.02
0.03 0.02 0.03 0.03 0.04 0.04 0.03 0.04 0.04 0.04 0.05 0.04 0.04 0.04 0.04 0.04 0.04 0.04 0.04 0.04 0.04 0.04 0.04 0.03 0.03 0.03 0.03 0.03 0.03 0.03 0.02 0.02 0.01 0.01 0.01 0.01 0.01 0.01 0.01 0.02 0.02 0.03 0.03 0.03
0.02 0.02 0.03 0.03 0.03 0.03 0.02 0.03 0.04 0.04 0.04 0.04 0.03 0.03 0.04 0.04 0.04 0.04 0.04 0.04 0.04 0.04 0.03 0.03 0.04 0.04 0.04 0.04 0.04 0.04 0.03 0.02 0.02 0.02 0.02 0.02 0.02 0.02 0.02 0.02 0.03 0.03 0.04 0.04
0.03 0.04 0.04 0.03 0.02 0.03 0.02 0.02 0.02 0.03 0.03 0.04 0.03 0.03 0.03 0.03 0.03 0.03 0.04 0.04 0.04 0.04 0.04 0.04 0.04 0.05 0.05 0.05 0.05 0.06 0.05 0.04 0.03 0.03 0.03 0.03 0.03 0.03 0.03 0.03 0.04 0.04 0.04 0.04
MSLP
1015.37 1015.42 1015.46 1015.39 1015.17 1014.76 1014.23 1013.64 1013.11 1012.76 1012.68 1012.92 1013.50 1014.37 1015.45 1016.63 1017.77 1018.78 1019.55 1020.04 1020.22 1020.10 1019.72 1019.11 1018.35 1017.50 1016.61 1015.74 1014.95 1014.26 1013.73 1013.36 1013.16 1013.11 1013.19 1013.35 1013.58 1013.81 1014.03 1014.23 1014.39 1014.52 1014.66 1014.80
1016.41 1016.47 1016.47 1016.33 1015.99 1015.44 1014.73 1013.97 1013.29 1012.82 1012.66 1012.88 1013.50 1014.45 1015.66 1016.98 1018.29 1019.44 1020.34 1020.93 1021.18 1021.11 1020.74 1020.14 1019.37 1018.51 1017.62 1016.74 1015.93 1015.22 1014.65 1014.21 1013.91 1013.75 1013.69 1013.72 1013.79 1013.90 1014.00 1014.10 1014.19 1014.28 1014.38 1014.49
1017.78 1017.83 1017.78 1017.55 1017.07 1016.36 1015.49 1014.55 1013.71 1013.11 1012.86 1013.04 1013.64 1014.63 1015.90 1017.31 1018.70 1019.94 1020.93 1021.59 1021.90 1021.88 1021.56 1021.01 1020.30 1019.49 1018.65 1017.82 1017.04 1016.34 1015.73 1015.24 1014.85 1014.56 1014.36 1014.23 1014.15 1014.11 1014.08 1014.08 1014.08 1014.09 1014.12 1014.18
1019.43 1019.45 1019.34 1019.00 1018.40 1017.54 1016.51 1015.43 1014.46 1013.75 1013.42 1013.53 1014.10 1015.07 1016.33 1017.73 1019.13 1020.39 1021.39 1022.07 1022.41 1022.44 1022.18 1021.70 1021.08 1020.37 1019.62 1018.88 1018.17 1017.50 1016.89 1016.35 1015.87 1015.46 1015.12 1014.84 1014.61 1014.42 1014.27 1014.15 1014.04 1013.96 1013.90 1013.87
1021.24 1021.23 1021.05 1020.62 1019.90 1018.94 1017.80 1016.63 1015.57 1014.79 1014.40 1014.45 1014.96 1015.86 1017.05 1018.37 1019.69 1020.87 1021.80 1022.44 1022.77 1022.81 1022.60 1022.21 1021.70 1021.11 1020.48 1019.85 1019.22 1018.60 1018.00 1017.42 1016.87 1016.36 1015.90 1015.48 1015.12 1014.80 1014.53 1014.30 1014.09 1013.90 1013.72 1013.56
1023.07 1023.02 1022.78 1022.27 1021.49 1020.46 1019.29 1018.09 1017.02 1016.23 1015.81 1015.83 1016.27 1017.06 1018.12 1019.29 1020.45 1021.46 1022.26 1022.79 1023.05 1023.07 1022.89 1022.57 1022.15 1021.68 1021.18 1020.66 1020.11 1019.55 1018.96 1018.36 1017.75 1017.16 1016.60 1016.08 1015.62 1015.20 1014.83 1014.49 1014.18 1013.87 1013.56 1013.25
1024.79 1024.70 1024.41 1023.86 1023.05 1022.02 1020.87 1019.73 1018.72 1017.98 1017.59 1017.58 1017.95 1018.63 1019.51 1020.48 1021.41 1022.20 1022.79 1023.16 1023.31 1023.27 1023.09 1022.81 1022.48 1022.11 1021.71 1021.28 1020.81 1020.29 1019.72 1019.10 1018.45 1017.80 1017.17 1016.58 1016.05 1015.56 1015.11 1014.69 1014.27 1013.85 1013.40 1012.93
1026.29 1026.17 1025.84 1025.27 1024.48 1023.51 1022.45 1021.42 1020.53 1019.90 1019.57 1019.58 1019.89 1020.44 1021.13 1021.86 1022.53 1023.06 1023.41 1023.58 1023.58 1023.46 1023.24 1022.99 1022.71 1022.41 1022.09 1021.73 1021.31 1020.82 1020.25 1019.61 1018.94 1018.25 1017.58 1016.95 1016.37 1015.84 1015.34 1014.85 1014.35 1013.80 1013.22 1012.59
1027.52 1027.36 1027.01 1026.45 1025.71 1024.84 1023.91 1023.04 1022.32 1021.82 1021.59 1021.63 1021.89 1022.32 1022.82 1023.31 1023.71 1023.98 1024.08 1024.04 1023.89 1023.66 1023.40 1023.14 1022.89 1022.63 1022.36 1022.04 1021.65 1021.16 1020.58 1019.93 1019.23 1018.52 1017.83 1017.19 1016.59 1016.03 1015.50 1014.96 1014.37 1013.72 1013.01 1012.23
1028.46 1028.27 1027.91 1027.39 1026.72 1025.96 1025.19 1024.50 1023.95 1023.60 1023.47 1023.54 1023.77 1024.09 1024.42 1024.69 1024.85 1024.86 1024.75 1024.52 1024.23 1023.90 1023.60 1023.32 1023.07 1022.84 1022.58 1022.27 1021.88 1021.38 1020.78 1020.11 1019.39 1018.67 1017.97 1017.32 1016.72 1016.15 1015.59 1015.00 1014.35 1013.61 1012.78 1011.88
1029.15 1028.94 1028.59 1028.10 1027.51 1026.87 1026.25 1025.72 1025.33 1025.12 1025.07 1025.17 1025.37 1025.59 1025.78 1025.86 1025.82 1025.65 1025.36 1024.99 1024.59 1024.20 1023.86 1023.57 1023.32 1023.08 1022.82 1022.50 1022.08 1021.55 1020.92 1020.22 1019.48 1018.75 1018.04 1017.40 1016.80 1016.23 1015.65 1015.02 1014.31 1013.49 1012.57 1011.55
1029.68 1029.47 1029.13 1028.68 1028.16 1027.62 1027.12 1026.71 1026.44 1026.32 1026.34 1026.45 1026.61 1026.75 1026.82 1026.77 1026.59 1026.29 1025.88 1025.43 1024.98 1024.56 1024.20 1023.90 1023.65 1023.40 1023.12 1022.76 1022.30 1021.74 1021.07 1020.34 1019.58 1018.83 1018.12 1017.48 1016.88 1016.30 1015.70 1015.04 1014.28 1013.39 1012.38 1011.29
1030.13 1029.92 1029.60 1029.19 1028.72 1028.25 1027.83 1027.51 1027.31 1027.23 1027.26 1027.37 1027.48 1027.55 1027.54 1027.41 1027.14 1026.77 1026.32 1025.84 1025.37 1024.96 1024.60 1024.31 1024.05 1023.79 1023.48 1023.08 1022.58 1021.97 1021.26 1020.50 1019.72 1018.96 1018.25 1017.60 1016.99 1016.40 1015.78 1015.08 1014.27 1013.33 1012.27 1011.11
1030.56 1030.37 1030.08 1029.70 1029.27 1028.84 1028.45 1028.16 1027.97 1027.89 1027.91 1027.97 1028.03 1028.05 1027.98 1027.80 1027.51 1027.12 1026.68 1026.21 1025.77 1025.38 1025.05 1024.77 1024.50 1024.22 1023.87 1023.44 1022.89 1022.24 1021.50 1020.70 1019.91 1019.14 1018.42 1017.76 1017.15 1016.54 1015.90 1015.17 1014.32 1013.33 1012.22 1011.03
1031.01 1030.86 1030.59 1030.24 1029.82 1029.40 1029.01 1028.70 1028.48 1028.36 1028.32 1028.33 1028.34 1028.31 1028.21 1028.02 1027.73 1027.37 1026.96 1026.55 1026.15 1025.80 1025.49 1025.21 1024.94 1024.63 1024.25 1023.77 1023.18 1022.50 1021.73 1020.92 1020.12 1019.34 1018.62 1017.96 1017.33 1016.71 1016.04 1015.28 1014.39 1013.38 1012.24 1011.02
1031.49 1031.37 1031.13 1030.78 1030.37 1029.93 1029.51 1029.15 1028.88 1028.69 1028.58 1028.52 1028.48 1028.41 1028.30 1028.11 1027.85 1027.53 1027.18 1026.82 1026.47 1026.15 1025.86 1025.57 1025.28 1024.94 1024.52 1024.01 1023.39 1022.68 1021.91 1021.10 1020.30 1019.53 1018.81 1018.15 1017.51 1016.87 1016.17 1015.39 1014.48 1013.44 1012.29 1011.07
1031.97 1031.87 1031.64 1031.29 1030.86 1030.39 1029.92 1029.50 1029.16 1028.90 1028.72 1028.60 1028.50 1028.41 1028.29 1028.11 1027.89 1027.62 1027.32 1027.00 1026.69 1026.38 1026.09 1025.79 1025.46 1025.08 1024.62 1024.08 1023.44 1022.73 1021.96 1021.17 1020.39 1019.64 1018.94 1018.27 1017.63 1016.97 1016.26 1015.46 1014.54 1013.50 1012.35 1011.13
1032.40 1032.30 1032.06 1031.70 1031.24 1030.72 1030.21 1029.73 1029.31 1028.99 1028.74 1028.57 1028.44 1028.32 1028.20 1028.05 1027.86 1027.62 1027.35 1027.06 1026.76 1026.45 1026.13 1025.79 1025.42 1025.00 1024.51 1023.94 1023.30 1022.60 1021.86 1021.10 1020.35 1019.63 1018.95 1018.30 1017.66 1016.99 1016.27 1015.46 1014.55 1013.51 1012.38 1011.18
1032.74 1032.61 1032.34 1031.93 1031.43 1030.88 1030.31 1029.78 1029.32 1028.94 1028.65 1028.44 1028.29 1028.16 1028.05 1027.91 1027.74 1027.52 1027.27 1026.98 1026.67 1026.33 1025.97 1025.59 1025.16 1024.70 1024.18 1023.60 1022.97 1022.29 1021.58 1020.87 1020.17 1019.49 1018.84 1018.21 1017.57 1016.91 1016.19 1015.38 1014.47 1013.46 1012.36 1011.19
1032.93 1032.74 1032.41 1031.96 1031.42 1030.83 1030.22 1029.66 1029.16 1028.76 1028.44 1028.21 1028.05 1027.93 1027.82 1027.69 1027.53 1027.32 1027.06 1026.76 1026.42 1026.04 1025.63 1025.20 1024.73 1024.22 1023.68 1023.10 1022.48 1021.84 1021.18 1020.52 1019.87 1019.24 1018.62 1018.01 1017.38 1016.72 1016.00 1015.20 1014.31 1013.33 1012.27 1011.16
1032.94 1032.68 1032.28 1031.77 1031.19 1030.57 1029.94 1029.37 1028.86 1028.45 1028.14 1027.91 1027.75 1027.63 1027.52 1027.40 1027.24 1027.03 1026.76 1026.44 1026.06 1025.64 1025.18 1024.69 1024.18 1023.65 1023.09 1022.51 1021.92 1021.31 1020.70 1020.09 1019.49 1018.90 1018.31 1017.71 1017.09 1016.44 1015.72 1014.94 1014.07 1013.13 1012.12 1011.07
1032.77 1032.41 1031.94 1031.38 1030.77 1030.13 1029.51 1028.94 1028.46 1028.06 1027.76 1027.55 1027.41 1027.30 1027.20 1027.08 1026.92 1026.70 1026.41 1026.06 1025.65 1025.19 1024.69 1024.16 1023.61 1023.05 1022.49 1021.91 1021.34 1020.77 1020.19 1019.63 1019.06 1018.50 1017.93 1017.34 1016.73 1016.07 1015.37 1014.59 1013.76 1012.86 1011.91 1010.93
1032.40 1031.96 1031.43 1030.83 1030.21 1029.58 1028.98 1028.45 1028.00 1027.64 1027.38 1027.19 1027.07 1026.97 1026.88 1026.76 1026.60 1026.37 1026.07 1025.70 1025.26 1024.77 1024.23 1023.67 1023.10 1022.52 1021.94 1021.37 1020.80 1020.24 1019.69 1019.14 1018.60 1018.05 1017.48 1016.90 1016.28 1015.63 1014.92 1014.17 1013.36 1012.51 1011.63 1010.73
1031.85 1031.34 1030.77 1030.17 1029.56 1028.97 1028.43 1027.95 1027.56 1027.26 1027.04 1026.89 1026.78 1026.70 1026.62 1026.50 1026.33 1026.09 1025.78 1025.39 1024.94 1024.42 1023.86 1023.28 1022.68 1022.07 1021.48 1020.89 1020.31 1019.75 1019.19 1018.64 1018.09 1017.53 1016.96 1016.36 1015.74 1015.08 1014.38 1013.64 1012.87 1012.07 1011.27 1010.46
1031.13 1030.59 1030.02 1029.44 1028.88 1028.36 1027.89 1027.50 1027.18 1026.94 1026.78 1026.66 1026.59 1026.52 1026.44 1026.32 1026.14 1025.90 1025.58 1025.18 1024.71 1024.18 1023.60 1022.98 1022.35 1021.72 1021.08 1020.46 1019.85 1019.25 1018.67 1018.09 1017.50 1016.92 1016.32 1015.70 1015.06 1014.39 1013.70 1012.99 1012.25 1011.52 1010.79 1010.08
1030.28 1029.74 1029.20 1028.68 1028.20 1027.77 1027.41 1027.11 1026.88 1026.72 1026.60 1026.53 1026.47 1026.41 1026.33 1026.21 1026.03 1025.77 1025.44 1025.03 1024.55 1024.00 1023.40 1022.75 1022.09 1021.40 1020.72 1020.04 1019.37 1018.71 1018.06 1017.42 1016.79 1016.15 1015.51 1014.86 1014.20 1013.53 1012.85 1012.17 1011.48 1010.81 1010.17 1009.56
Thickness
5514 5510 5514 5525 5534 5542 5548 5550 5556 5570 5579 5576 5578 5584 5593 5601 5606 5611 5615 5619 5623 5626 5631 5634 5634 5635 5635 5634 5634 5635 5634 5634 5634 5633 5632 5631 5631 5632 5632 5633 5633 5633 5633 5634
5495 5498 5513 5520 5524 5528 5531 5533 5543 5556 5566 5566 5568 5574 5585 5593 5598 5604 5608 5611 5615 5618 5621 5624 5626 5626 5627 5627 5627 5627 5627 5627 5627 5626 5625 5625 5624 5624 5625 5625 5625 5626 5626 5627
5481 5493 5504 5506 5509 5512 5518 5522 5531 5538 5547 5554 5554 5558 5573 5585 5593 5598 5602 5605 5609 5611 5612 5615 5617 5617 5618 5619 5619 5620 5620 5620 5620 5619 5618 5617 5616 5615 5615 5616 5617 5619 5620 5621
5471 5483 5487 5489 5494 5499 5503 5519 5522 5526 5523 5526 5539 5535 5565 5576 5581 5587 5591 5595 5598 5602 5604 5606 5608 5609 5610 5611 5611 5612 5612 5612 5612 5612 5611 5611 5610 5608 5609 5610 5611 5612 5613 5614
5456 5469 5471 5474 5483 5489 5495 5506 5509 5512 5512 5513 5526 5526 5549 5569 5569 5575 5581 5586 5589 5592 5595 5596 5599 5600 5602 5603 5603 5603 5604 5604 5604 5605 5605 5604 5603 5603 5603 5603 5604 5605 5606 5607
5449 5458 5461 5466 5476 5482 5486 5492 5497 5500 5496 5493 5520 5521 5535 5552 5563 5568 5572 5576 5579 5582 5585 5587 5589 5591 5592 5593 5594 5595 5596 5596 5597 5597 5598 5598 5598 5597 5597 5597 5597 5598 5599 5600
5434 5444 5451 5457 5458 5467 5470 5467 5469 5472 5475 5492 5524 5520 5526 5550 5559 5560 5562 5565 5567 5570 5573 5575 5577 5579 5581 5583 5585 5586 5587 5588 5589 5590 5590 5591 5591 5592 5593 5592 5591 5592 5592 5593
5410 5420 5439 5445 5447 5446 5452 5459 5461 5467 5480 5498 5514 5510 5517 5538 5545 5549 5551 5554 5556 5558 5561 5564 5566 5568 5571 5574 5576 5577 5579 5580 5581 5582 5583 5584 5585 5586 5586 5586 5586 5587 5588 5588
5389 5407 5427 5435 5442 5445 5443 5448 5461 5464 5475 5484 5496 5505 5513 5524 5528 5531 5536 5540 5542 5545 5548 5551 5554 5557 5560 5563 5566 5568 5571 5573 5574 5575 5575 5576 5577 5578 5579 5579 5579 5580 5580 5581
5377 5385 5410 5421 5429 5433 5437 5442 5445 5448 5460 5476 5492 5494 5493 5501 5509 5515 5520 5524 5528 5532 5535 5538 5541 5545 5549 5553 5556 5559 5562 5565 5566 5567 5568 5569 5570 5571 5572 5572 5572 5571 5572 5573
5371 5372 5391 5406 5406 5411 5421 5426 5432 5440 5452 5462 5474 5473 5487 5493 5497 5500 5505 5510 5514 5517 5521 5525 5529 5533 5538 5542 5545 5548 5552 5555 5557 5559 5559 5560 5561 5563 5563 5563 5563 5563 5564 5565
5364 5365 5372 5392 5403 5407 5409 5413 5418 5422 5433 5452 5458 5454 5475 5479 5483 5487 5491 5496 5500 5504 5507 5511 5516 5520 5525 5529 5534 5538 5541 5544 5547 5549 5549 5550 5552 5553 5554 5554 5555 5555 5555 5556
5356 5353 5358 5376 5386 5391 5393 5401 5408 5417 5423 5434 5443 5445 5459 5462 5466 5471 5475 5480 5486 5489 5492 5496 5501 5507 5511 5516 5521 5525 5528 5532 5535 5537 5539 5540 5542 5543 5544 5545 5546 5546 5546 5546
5353 5345 5347 5354 5362 5370 5378 5388 5398 5404 5406 5416 5427 5433 5439 5443 5448 5453 5459 5466 5470 5474 5477 5482 5487 5493 5498 5503 5508 5512 5515 5519 5522 5526 5528 5529 5531 5533 5534 5535 5535 5536 5536 5537
5339 5336 5345 5354 5365 5369 5372 5378 5386 5390 5398 5402 5412 5418 5423 5428 5434 5440 5446 5452 5457 5461 5465 5468 5472 5478 5483 5489 5494 5499 5502 5506 5509 5513 5515 5518 5520 5522 5523 5524 5525 5525 5526 5527
5329 5326 5335 5345 5360 5365 5365 5370 5375 5382 5390 5395 5402 5407 5413 5419 5424 5428 5433 5439 5443 5447 5451 5455 5460 5465 5470 5475 5481 5485 5489 5493 5497 5500 5503 5506 5509 5510 5512 5513 5514 5515 5515 5516
5319 5319 5325 5337 5353 5357 5351 5356 5363 5370 5377 5382 5385 5390 5400 5405 5410 5413 5418 5424 5429 5433 5438 5443 5446 5451 5456 5462 5467 5472 5477 5481 5484 5488 5491 5494 5497 5498 5500 5501 5502 5503 5504 5504
5312 5313 5319 5329 5336 5329 5341 5353 5357 5361 5364 5369 5375 5381 5388 5392 5397 5403 5407 5411 5416 5421 5425 5430 5434 5439 5444 5449 5455 5460 5465 5469 5472 5476 5478 5481 5484 5486 5488 5489 5490 5491 5492 5492
5317 5313 5315 5321 5325 5333 5338 5341 5344 5349 5354 5356 5361 5370 5377 5383 5390 5393 5396 5400 5405 5409 5414 5418 5422 5427 5432 5437 5443 5448 5452 5457 5460 5463 5466 5469 5472 5473 5475 5476 5477 5478 5479 5480
5314 5311 5307 5313 5316 5315 5319 5331 5343 5346 5343 5344 5350 5356 5363 5370 5374 5376 5383 5388 5394 5398 5403 5407 5411 5416 5420 5425 5431 5436 5440 5444 5448 5451 5454 5456 5459 5461 5463 5463 5464 5466 5467 5468
5297 5298 5298 5302 5306 5310 5309 5323 5337 5326 5321 5332 5339 5344 5350 5353 5355 5361 5371 5377 5382 5387 5392 5396 5400 5404 5408 5413 5419 5423 5427 5431 5435 5438 5441 5444 5446 5448 5450 5451 5453 5454 5455 5456
5284 5287 5291 5294 5293 5295 5301 5311 5309 5307 5316 5322 5327 5332 5337 5342 5348 5354 5360 5366 5370 5375 5380 5384 5388 5391 5396 5401 5407 5411 5414 5418 5423 5426 5429 5431 5433 5436 5438 5439 5439 5441 5442 5443
5280 5276 5278 5282 5283 5288 5291 5293 5297 5301 5306 5312 5317 5323 5328 5333 5338 5345 5350 5355 5359 5363 5368 5372 5376 5379 5383 5388 5394 5398 5401 5406 5410 5413 5415 5417 5420 5422 5424 5425 5426 5427 5429 5430
5275 5277 5278 5278 5281 5282 5285 5288 5291 5295 5298 5304 5309 5315 5319 5323 5329 5335 5340 5344 5348 5352 5356 5361 5365 5368 5371 5376 5380 5384 5389 5394 5398 5400 5402 5404 5406 5408 5410 5412 5413 5415 5416 5417
5260 5267 5268 5269 5272 5276 5279 5280 5283 5288 5293 5297 5302 5307 5311 5315 5320 5326 5330 5334 5338 5342 5345 5349 5353 5356 5359 5364 5368 5372 5377 5382 5386 5388 5389 5391 5393 5395 5397 5398 5399 5401 5403 5405
5253 5252 5255 5259 5264 5264 5268 5274 5278 5282 5285 5290 5294 5298 5303 5307 5311 5317 5320 5323 5327 5331 5334 5338 5341 5344 5348 5352 5356 5360 5364 5369 5373 5375 5377 5379 5381 5382 5383 5385 5386 5388 5390 5392